Tracking 30918 objects as of 2-Jul-2025
HD Live streaming from Space Station
objects crossing your sky now

SCOUT A DEB

Track SCOUT A DEB now!
10-day predictions


NORAD ID: 5036
Int'l Code: 1970-067C
Perigee: 782.5 km
Apogee: 816.6 km
Inclination: 89.9 °
Period: 100.7 minutes
Semi major axis: 7170 km
RCS: 0.0454 m2 (small)
Launch date: August 27, 1970
Source: United States (US)
Launch site: AIR FORCE WESTERN TEST RANGE (AFWTR)

Note: This is SATELLITE DEBRIS
Your satellite tracking list
STARLINK-30132
Track 1 satellite(s)




NASA's NSSDC Master Catalog

Two Line Element Set (TLE):
1 05036U 70067C   25182.64633891  .00001623  00000-0  62557-3 0  9992
2 05036  89.9367 253.4701 0023770  45.3272 314.9855 14.29806318806441
Source of the keplerian elements: AFSPC